EHI
0 0 0 0 0 0 1 1 1 3 6 8 12 20 31 42 49 55 59 57 54 50 48 49 50 48 48 48 48 48 48 44 38 32 29 26 22 20 17 13 13 15 15 13
0 0 0 0 0 1 1 2 3 6 9 11 15 24 36 47 55 60 61 59 54 51 50 51 52 50 49 48 46 46 48 43 35 29 25 23 19 17 16 13 12 14 13 11
0 0 0 0 1 1 2 4 6 11 15 17 21 30 43 52 58 63 63 60 55 51 50 51 51 50 49 47 43 43 44 40 31 25 21 19 16 15 15 13 12 11 11 10
0 0 0 1 2 3 4 6 10 16 22 26 31 39 48 54 58 63 63 61 57 53 50 49 48 46 45 44 42 41 39 34 28 23 19 17 16 16 15 13 11 10 10 10
0 0 0 1 3 5 6 9 14 20 28 36 43 49 51 54 59 63 63 61 58 56 53 50 46 43 43 41 39 37 34 29 25 20 18 17 16 16 15 12 11 10 10 10
0 0 0 1 4 6 7 12 18 25 34 44 51 51 51 54 60 64 63 60 59 59 57 51 45 44 43 38 34 31 28 25 22 18 17 16 16 15 14 12 11 11 10 10
0 0 1 3 6 6 7 15 23 30 40 51 56 53 53 57 62 65 62 60 59 60 57 52 46 44 41 34 28 25 24 22 19 16 15 15 14 14 14 12 12 11 10 10
0 0 2 7 8 8 11 19 30 38 48 58 62 60 57 58 63 64 61 58 58 56 52 48 46 42 37 31 26 24 24 21 16 13 12 12 13 13 14 13 13 12 11 10
3 4 7 11 14 15 20 29 38 46 54 61 63 61 58 58 60 60 58 55 52 48 44 42 40 37 33 28 25 25 22 17 12 9 9 10 12 13 14 14 13 12 11 10
10 12 15 17 21 26 32 39 45 48 53 57 58 57 55 54 54 54 53 51 47 42 39 36 32 28 25 24 24 23 20 14 9 7 7 9 10 12 13 13 13 12 10 9
14 16 19 20 23 30 37 43 47 48 49 51 51 50 48 46 45 46 45 43 39 37 34 30 25 20 18 18 20 20 16 12 8 7 6 7 8 9 10 10 10 9 8 7
11 14 18 19 22 27 35 43 48 49 46 44 44 44 41 36 33 34 33 31 29 29 27 23 19 16 13 14 16 16 13 9 7 6 5 5 5 7 7 6 5 4 4 5
10 13 18 21 23 28 35 41 46 45 41 38 38 38 35 30 26 26 24 22 21 21 21 19 16 14 12 13 13 13 11 8 5 5 4 3 4 5 5 3 2 1 2 2
11 14 19 23 27 31 35 37 38 36 33 31 30 30 28 25 24 22 20 18 17 16 16 15 14 13 13 13 13 13 11 7 4 4 3 3 3 4 4 4 3 2 1 1
9 12 18 23 26 28 29 29 27 26 26 24 23 22 21 20 20 19 17 15 14 13 12 12 13 13 13 13 13 11 9 6 4 3 3 2 1 2 3 3 3 3 1 0
7 9 14 19 21 21 21 21 19 19 20 20 17 16 16 15 14 14 12 11 10 9 10 11 13 13 13 13 11 9 7 5 4 3 3 1 0 1 2 3 3 3 2 1
6 7 9 12 15 16 16 16 15 15 16 16 15 15 15 13 11 11 10 8 7 7 8 10 12 12 12 12 10 8 6 4 3 3 2 1 0 1 3 3 3 3 2 1
4 5 6 8 10 13 15 16 15 14 14 14 15 17 16 13 11 10 10 9 7 6 7 8 9 10 10 9 8 7 5 3 2 2 2 1 1 2 2 3 3 2 2 1
2 4 5 5 8 11 14 15 15 13 13 14 16 17 15 12 11 10 9 8 6 6 6 6 7 7 7 6 6 5 3 1 1 1 1 1 1 1 1 2 1 1 1 0
2 4 6 5 8 11 13 14 13 12 12 14 15 14 12 10 9 7 5 5 4 4 4 4 5 6 5 4 2 1 1 0 0 0 0 0 0 0 0 0 0 0 0 0
1 3 5 6 8 11 11 11 11 10 10 12 12 10 9 8 6 4 3 3 3 3 3 3 4 4 3 2 0 0 0 0 0 0 0 0 0 0 0 0 0 0 0 0
1 2 3 5 8 9 8 8 7 7 7 7 7 6 7 7 6 4 3 3 3 3 3 3 3 2 1 0 0 0 0 0 0 0 0 0 0 0 0 0 0 0 0 0
1 1 2 3 5 5 5 5 4 4 5 5 4 4 5 6 5 4 3 3 3 3 3 3 2 1 0 0 0 0 0 0 0 0 0 0 0 0 0 0 0 0 0 0
2 2 2 3 3 3 3 3 3 4 4 4 4 3 4 5 4 3 3 2 2 2 2 1 1 0 0 0 0 0 0 0 0 0 0 0 0 0 0 0 0 0 0 0
3 3 3 3 3 3 3 4 4 4 4 4 3 3 3 3 3 2 1 1 1 1 1 0 0 0 0 0 0 0 0 0 0 0 0 0 0 0 0 0 0 0 0 0
3 3 3 3 3 3 4 5 5 4 3 3 3 3 3 3 1 1 0 0 0 0 0 0 0 0 0 0 0 0 0 0 0 0 0 0 0 0 0 0 0 0 0 0
3 3 3 3 3 3 4 5 4 3 3 3 3 3 3 2 1 0 0 0 0 0 0 0 0 0 0 0 0 0 0 0 0 0 0 0 0 0 0 0 0 0 0 0
Wind_Speed
4 5 2 2 4 2 3 8 9 8 9 10 10 12 11 11 10 10 9 9 9 8 7 7 7 6 6 6 6 6 7 6 5 4 4 4 4 4 4 3 3 3 3 3
2 2 2 2 4 2 2 3 5 6 5 6 7 7 8 9 11 11 10 10 9 9 8 8 7 7 7 6 6 7 7 6 5 5 5 4 4 4 4 3 3 4 4 4
2 3 3 3 5 2 2 1 6 7 7 6 8 10 11 11 12 12 11 10 9 9 8 8 8 7 7 6 6 7 7 6 6 6 5 5 5 4 4 4 4 5 4 4
1 2 3 9 4 3 1 1 2 4 6 10 12 10 9 10 12 12 11 11 10 9 8 7 7 7 7 6 6 6 6 6 5 6 5 5 5 5 4 3 4 4 4 4
3 2 4 6 3 2 3 3 1 5 7 8 9 8 3 3 8 11 11 10 9 9 8 8 8 8 8 7 6 6 6 5 5 6 6 5 5 4 4 4 4 3 3 4
4 4 5 7 6 1 7 2 4 5 9 9 9 6 5 5 5 7 7 7 7 8 8 8 8 8 8 7 6 6 6 5 5 5 5 5 5 4 3 4 4 4 4 3
4 4 6 7 5 3 4 6 4 4 7 7 6 7 7 6 6 7 7 8 8 9 8 7 8 9 9 7 6 6 6 6 5 5 5 5 4 4 4 4 4 4 4 3
4 3 7 5 2 3 6 4 2 4 5 6 6 6 6 6 7 8 8 9 9 9 7 6 8 9 8 6 5 6 6 6 5 5 4 4 4 4 4 5 5 4 3 2
6 7 5 2 2 2 5 4 2 4 6 9 9 7 7 7 7 8 9 8 8 9 7 5 6 8 8 6 6 6 6 6 5 4 3 4 4 4 4 4 4 3 3 2
1 2 1 2 4 4 4 5 4 6 9 11 10 8 7 7 6 7 7 8 8 9 8 5 5 6 7 7 7 7 6 5 5 4 3 3 2 2 3 3 4 4 4 3
0 2 4 4 4 4 5 7 8 7 6 9 12 9 8 6 6 6 6 6 7 8 8 7 6 6 6 6 7 7 6 5 5 4 4 3 2 2 2 2 4 5 4 4
3 4 2 3 1 3 6 6 7 6 6 6 8 9 7 6 5 5 6 6 6 7 7 6 6 6 5 6 7 7 5 5 4 4 3 3 3 2 4 1 2 5 6 6
4 3 2 2 0 4 6 6 6 6 6 7 6 7 7 6 5 5 6 6 6 6 6 6 6 5 5 5 6 6 6 5 4 4 4 4 4 4 2 2 3 2 4 6
0 3 3 2 2 4 6 6 8 7 5 7 7 7 7 6 5 5 5 5 5 6 5 5 5 4 4 5 6 5 5 5 5 4 4 4 4 4 4 4 2 0 1 4
2 2 2 2 4 5 6 6 8 6 5 6 6 7 7 6 5 4 4 4 5 5 4 4 4 3 4 5 5 5 4 4 3 3 4 4 4 3 3 3 3 2 1 1
1 1 2 4 4 4 5 6 6 5 5 5 5 5 5 5 5 4 4 4 5 5 4 4 4 4 4 5 5 4 3 5 5 4 3 3 4 4 3 3 3 3 3 3
1 1 2 3 2 4 5 5 5 5 5 5 5 5 5 5 5 4 3 3 3 3 3 4 3 3 4 5 5 3 3 4 5 4 3 4 4 4 4 4 4 4 4 4
2 2 3 3 3 4 4 4 4 5 4 4 5 5 5 5 4 4 3 3 3 2 1 2 3 4 4 4 4 3 3 3 3 3 3 3 3 3 3 4 4 4 3 3
3 3 3 3 3 4 4 4 3 3 4 4 4 3 3 3 3 3 4 4 4 2 2 2 5 5 4 3 4 3 3 3 3 2 2 3 3 2 3 3 3 4 3 3
3 2 3 3 3 4 4 3 4 3 3 4 4 4 3 2 3 3 3 3 3 3 3 3 4 4 3 3 4 3 3 3 3 3 2 3 3 2 2 3 3 3 3 3
3 3 4 3 3 3 3 3 4 3 3 3 4 4 3 3 3 3 3 2 1 2 3 5 3 3 3 3 4 3 3 3 3 3 3 3 3 3 3 3 3 3 3 3
3 4 4 3 3 2 2 2 3 3 3 2 3 3 3 2 2 2 2 2 2 3 3 2 2 4 4 4 2 2 3 3 3 3 3 3 3 3 3 3 3 3 3 3
2 3 3 3 2 2 2 2 2 3 3 3 3 3 3 2 2 3 2 1 2 4 3 2 3 5 6 3 2 2 3 3 3 3 3 3 3 3 3 3 3 2 2 2
1 2 2 2 3 3 2 1 1 1 1 1 1 2 3 2 1 1 2 3 4 4 3 3 5 6 6 2 2 2 2 2 2 2 2 2 2 3 3 3 3 2 3 3
1 2 2 3 2 1 1 1 1 1 1 1 1 1 1 2 2 2 2 3 4 4 2 3 5 5 4 2 2 2 2 2 2 2 2 2 2 2 2 2 3 3 2 3
1 1 1 1 1 1 1 1 1 0 1 1 0 0 0 1 2 2 2 3 4 3 2 2 3 3 2 2 2 2 2 2 2 2 3 3 2 2 2 2 3 2 2 2
2 2 1 1 1 0 1 1 1 1 1 1 1 0 1 1 1 2 2 2 2 2 2 2 2 2 2 2 2 2 2 2 2 2 2 2 2 2 2 3 2 3 3 3
Wind_Direction
204 223 225 250 275 271 186 180 174 203 193 204 189 179 173 163 153 150 156 158 160 160 158 154 150 155 156 153 154 148 141 142 147 148 144 136 129 119 113 110 108 105 99 85
333 343 4 321 300 294 263 188 164 158 209 208 165 150 150 156 155 154 160 163 165 160 156 156 154 155 154 153 150 143 143 145 143 136 132 127 122 118 112 103 95 95 92 88
279 316 30 286 253 234 268 222 159 176 207 163 139 153 165 165 163 165 168 167 165 164 165 163 159 155 154 153 144 139 143 145 145 142 136 137 131 118 115 112 102 96 95 93
126 55 223 242 240 179 156 268 182 169 164 155 157 164 165 165 166 169 168 168 171 168 168 163 151 139 134 134 134 136 139 143 144 143 141 138 130 129 126 120 117 112 107 105
121 166 265 288 286 184 140 308 311 143 140 140 132 101 85 182 168 168 169 168 169 168 159 148 143 137 131 127 129 130 135 139 144 143 144 142 142 143 138 127 120 117 121 115
133 157 218 249 280 233 101 340 303 144 143 142 124 127 205 201 160 149 147 151 154 148 139 140 142 136 130 134 136 139 139 136 134 136 143 147 148 141 131 128 127 121 108 109
154 188 248 254 285 63 104 232 262 150 147 144 148 173 179 160 145 139 134 130 130 130 134 140 141 138 136 141 151 148 135 129 127 130 136 139 137 137 132 127 123 117 112 106
148 175 247 289 46 133 199 216 165 134 133 123 122 120 126 129 131 129 124 119 121 122 123 132 136 138 140 148 146 131 129 127 126 130 137 131 129 133 132 136 133 130 120 104
180 205 236 291 158 172 148 127 111 123 123 120 115 115 116 118 123 125 123 122 120 120 118 123 136 139 141 146 136 131 129 128 127 124 117 125 137 147 144 147 150 151 149 149
73 283 325 41 62 56 85 108 107 121 126 120 115 120 118 119 122 121 122 126 123 119 120 123 132 134 141 145 141 138 138 134 131 130 123 117 124 142 154 166 168 167 169 173
34 309 23 16 39 66 67 83 87 96 115 126 127 126 126 129 131 132 131 132 131 136 138 145 143 139 144 145 141 139 141 142 141 142 143 130 113 113 157 183 187 176 182 178
225 240 177 256 292 86 84 87 93 96 94 107 122 126 125 127 127 131 135 138 137 139 141 145 145 147 150 150 149 147 147 152 155 153 147 142 134 93 43 86 162 173 174 170
220 231 191 217 40 83 90 96 95 96 116 116 114 118 123 126 129 129 133 137 144 147 147 147 147 151 159 156 153 154 158 163 160 158 158 160 158 154 144 41 55 126 181 178
19 81 67 62 83 81 87 89 89 82 89 105 106 104 107 107 111 121 137 145 143 140 141 144 146 156 166 156 153 157 159 163 163 167 169 170 171 170 167 167 170 241 272 201
14 78 146 125 91 89 91 91 88 88 91 89 98 104 111 116 122 128 126 124 121 125 135 139 143 160 162 152 153 160 161 165 168 169 171 171 169 168 175 180 181 181 179 244
341 34 84 90 96 111 108 109 114 115 108 100 101 107 115 122 119 115 118 131 136 146 154 152 158 170 160 152 152 158 168 167 160 160 163 167 169 170 179 185 186 187 193 194
88 25 57 88 112 128 125 131 139 135 122 119 125 121 112 109 109 113 125 133 140 148 153 157 165 156 152 153 155 159 159 162 155 151 166 175 178 184 189 187 191 195 201 192
152 161 137 132 145 126 116 115 119 122 127 128 122 118 118 124 139 148 143 127 113 108 138 160 150 141 145 151 155 156 156 156 157 163 170 174 179 184 181 187 192 191 193 183
91 79 92 120 133 117 113 116 126 126 119 117 123 128 133 138 145 145 133 131 136 158 210 164 142 140 145 147 145 143 148 151 156 164 171 171 166 169 174 180 186 192 188 179
99 101 106 105 103 108 112 118 120 123 124 126 132 131 136 144 148 148 145 158 186 196 180 153 146 145 150 149 141 147 152 158 165 169 167 167 170 175 180 186 188 191 190 187
93 94 99 96 85 86 104 120 123 129 134 132 139 155 167 170 160 154 155 174 238 176 148 142 144 151 155 152 147 147 153 159 166 172 173 175 180 186 190 194 194 194 189 189
87 95 92 85 77 63 61 96 114 123 127 134 143 142 141 154 156 146 173 191 191 161 145 147 157 160 156 150 148 151 163 169 174 178 181 183 185 192 195 191 190 188 188 189
103 112 112 113 108 91 64 75 104 126 142 154 163 160 167 184 174 161 196 231 174 159 152 164 169 160 155 147 155 172 180 181 184 187 187 185 187 189 189 188 191 189 184 186
105 107 105 102 96 89 76 39 72 96 121 131 159 171 170 159 143 179 170 169 169 165 169 176 170 164 160 161 168 172 177 175 171 180 183 177 183 190 189 186 189 192 189 185
89 88 89 93 91 109 136 102 70 58 72 83 100 126 145 156 166 182 160 158 169 168 176 176 169 167 169 179 179 180 181 173 170 174 169 163 173 182 187 190 191 194 194 188
62 74 91 108 146 181 171 123 99 68 90 86 27 352 102 125 143 151 150 156 163 170 169 164 168 172 178 178 178 180 176 168 170 173 167 168 171 173 179 188 195 192 188 184
56 56 66 52 24 61 110 121 133 161 182 168 168 210 150 128 130 133 132 148 164 166 165 159 157 164 176 181 178 172 166 167 168 167 164 172 179 180 185 190 190 183 183 185